Orbital Elements at Epoch 2459000.5 (2020-May-31.0) TDB
Reference: JPL 14 (heliocentric ecliptic J2000)
Element | Value | Uncertainty (1-sigma) | Units |
e | .07376062976331332 | 5.1545e-08 | |
a | 2.723052700125694 | 2.9746e-08 | au |
q | 2.522198618085732 | 1.4864e-07 | au |
i | 7.338373353380109 | 5.1593e-06 | deg |
node | 240.8283481825212 | 5.0501e-05 | deg |
peri | 346.9300969627673 | 6.5499e-05 | deg |
M | 323.0438086332609 | 4.2476e-05 | deg |
tp | 2459168.987312534162 (2020-Nov-15.48731253) | 0.00019432 | TDB |
period | 1641.279316647574 4.49 | 2.6894e-05 7.363e-08 | d yr |
n | .2193410934680666 | 3.5941e-09 | deg/d |
Q | 2.923906782165656 | 3.1941e-08 | au |
|
| | Orbit Determination Parameters
Additional Information
|